Change the Weather History Date:

Friday, December 28, 2012

  Actual Average Record
Temperature  
Mean Temperature 42 °F -  
Max Temperature 46 °F - - ()
Min Temperature 38 °F - - ()
Degree Days  
Heating Degree Days 23    
Moisture  
Dew Point 39 °F    
Average Humidity 89    
Maximum Humidity 96    
Minimum Humidity 74    
Precipitation  
Precipitation 0.00 in - - ()
Sea Level Pressure  
Sea Level Pressure 29.97 in    
Wind  
Wind Speed 4 mph ()    
Max Wind Speed 10 mph    
Max Gust Speed -    
T = Trace of Precipitation, MM = Missing Value Source: Averaged Metar Reports

Daily Weather History Graph

Daily Weather History Graph

Search for Another Location

Airport or City:

Trip Planner

Search our weather history database for the weather conditions in past years. The results will help you decide how hot, cold, wet, or windy it might be!

Date:

Astronomy

Dec. 28, 2012 Rise Set
Actual Time 9:00 AM PST 4:36 PM PST
Civil Twilight 8:17 AM PST 5:18 PM PST
Nautical Twilight 7:33 AM PST 6:03 PM PST
Astronomical Twilight 6:50 AM PST 6:46 PM PST
Moon 5:29 PM PST (12/28) 8:50 AM PST (12/28)
Length of Visible Light 9h 01m
Length of Day
7h 36m
Full, 100% of the Moon is Illuminated
Dec 28
Full
Jan 4
Last Quarter
Jan 11
New
Jan 18
First Quarter
Jan 26
Full

Hourly Weather History & Observations

Time (PST) Temp. Windchill Dew Point Humidity Pressure Visibility Wind Dir Wind Speed Gust Speed Precip Events Conditions
12:00 AM 41.7 °F 39.8 °F 40.5 °F 95% 29.82 in - WSW 3.5 mph - N/A   Unknown
1:00 AM 41.7 °F 38.8 °F 40.5 °F 95% 29.83 in - WSW 4.6 mph - N/A   Unknown
2:00 AM 41.2 °F 36.6 °F 40.1 °F 96% 29.83 in - West 6.9 mph - N/A   Unknown
3:00 AM 42.1 °F 38.4 °F 40.8 °F 95% 29.85 in - West 5.8 mph - N/A   Unknown
4:00 AM 42 °F - 40 °F 92% 29.85 in - WNW 1.2 mph - -  
4:00 AM 42.3 °F - 40.5 °F 93% 29.85 in - WNW 1.2 mph - N/A   Unknown
5:00 AM 41.7 °F 37.3 °F 40.1 °F 94% 29.86 in - West 6.9 mph - N/A   Unknown
6:00 AM 41.2 °F 37.3 °F 39.6 °F 94% 29.86 in - WSW 5.8 mph - N/A   Unknown
7:00 AM 40.8 °F 36.2 °F 38.7 °F 92% 29.88 in - West 6.9 mph - N/A   Unknown
8:00 AM 40.5 °F 36.5 °F 37.9 °F 91% 29.90 in - WSW 5.8 mph - N/A   Unknown
9:00 AM 40.5 °F - 38.7 °F 93% 29.93 in - South 1.2 mph - N/A   Unknown
10:00 AM 42 °F - 40 °F 88% 29.96 in - West 2.3 mph - -  
10:00 AM 42.1 °F - 39.7 °F 91% 29.96 in - West 2.3 mph - N/A   Unknown
11:00 AM 43.5 °F 40.9 °F 40.1 °F 88% 29.97 in - WSW 4.6 mph - N/A   Unknown
12:00 PM 45.5 °F - 40.3 °F 82% 29.98 in - Calm Calm - N/A   Unknown
1:00 PM 46.4 °F - 41.4 °F 83% 30.00 in - WSW 2.3 mph - N/A   Unknown
2:00 PM 42.4 °F 36.5 °F 38.7 °F 86% 30.02 in - West 10.4 mph - N/A   Unknown
3:00 PM 43.3 °F 39.2 °F 38.1 °F 82% 30.03 in - NW 6.9 mph - N/A   Unknown
4:00 PM 43 °F - 37 °F 74% 30.04 in - WNW 3.5 mph - -  
4:00 PM 42.6 °F 40.9 °F 37.4 °F 82% 30.04 in - WNW 3.5 mph - N/A   Unknown
5:00 PM 41.4 °F 37.6 °F 37.9 °F 88% 30.05 in - WNW 5.8 mph - N/A   Unknown
6:00 PM 40.6 °F 36.7 °F 37.6 °F 89% 30.07 in - West 5.8 mph - N/A   Unknown
7:00 PM 40.3 °F 36.3 °F 36.1 °F 85% 30.07 in - West 5.8 mph - N/A   Unknown
8:00 PM 39.0 °F 34.0 °F 36.5 °F 91% 30.09 in - West 6.9 mph - N/A   Unknown
9:00 PM 39.4 °F 34.5 °F 36.7 °F 90% 30.10 in - West 6.9 mph - N/A   Unknown
10:00 PM 39 °F - 36 °F 83% 30.13 in - West 6.9 mph - -  
10:00 PM 38.8 °F 33.8 °F 35.6 °F 88% 30.13 in - West 6.9 mph - N/A   Unknown
11:00 PM 38.3 °F 31.4 °F 36.9 °F 95% 30.14 in - WSW 10.4 mph - N/A   Unknown